This is the latest recevied weather packets stored in our database for station/object W2TAO. If no packets are shown the sender has not sent any weather packets the latest 10 day(s).
| Time | Temp. | Humidity | Pressure | Rain* | Wind** | Luminosity | Snow |
|---|---|---|---|---|---|---|---|
| 1778109075 | 11.67° C | 98% | 1009 hPa | 0 mm | - | 14 W/m² | - |
| 1778108772 | 12.22° C | 98% | 1009.1 hPa | 0 mm | - | 11 W/m² | - |
| 1778108469 | 12.78° C | 98% | 1008.8 hPa | 0 mm | - | 6 W/m² | - |
| 1778108165 | 12.78° C | 98% | 1008.8 hPa | 0 mm | - | 19 W/m² | - |
| 1778107861 | 13.33° C | 99% | 1008.7 hPa | 0 mm | - | 15 W/m² | - |
| 1778107559 | 13.89° C | 99% | 1008.4 hPa | 1.27 mm | - | 17 W/m² | - |
| 1778107255 | 15° C | 99% | 1008.2 hPa | 4.83 mm | - | 9 W/m² | - |
| 1778106951 | 15° C | 99% | 1007.8 hPa | 2.29 mm | - | 3 W/m² | - |
| 1778106648 | 15.56° C | 99% | 1007.7 hPa | 0 mm | - | 8 W/m² | - |
| 1778106344 | 15.56° C | 99% | 1007.5 hPa | 0 mm | - | 13 W/m² | - |
| 1778106041 | 15.56° C | 99% | 1007.7 hPa | 0 mm | - | 11 W/m² | - |
| 1778105738 | 15.56° C | 99% | 1007.7 hPa | 0 mm | - | 9 W/m² | - |
| 1778105436 | 15.56° C | 99% | 1007.6 hPa | 0 mm | - | 20 W/m² | - |
| 1778105132 | 15.56° C | 99% | 1007.7 hPa | 0 mm | - | 38 W/m² | - |
| 1778104828 | 15.56° C | 99% | 1007.6 hPa | 0 mm | - | 48 W/m² | - |
| 1778104525 | 15.56° C | 99% | 1007.6 hPa | 0 mm | - | 97 W/m² | - |
| 1778104220 | 15.56° C | 99% | 1007.6 hPa | 0 mm | - | 121 W/m² | - |
| 1778103918 | 15.56° C | 99% | 1007.5 hPa | 0 mm | - | 64 W/m² | - |
| 1778103615 | 15.56° C | 99% | 1007.6 hPa | 0 mm | - | 113 W/m² | - |
| 1778103313 | 15° C | 99% | 1007.5 hPa | 0 mm | - | 98 W/m² | - |
| 1778103010 | 15° C | 99% | 1007.4 hPa | 0 mm | - | 52 W/m² | - |
| 1778102706 | 15° C | 99% | 1007.3 hPa | 0 mm | - | 29 W/m² | - |
| 1778102401 | 15° C | 99% | 1007.5 hPa | 0 mm | - | 31 W/m² | - |
| 1778102097 | 15° C | 99% | 1007.4 hPa | 0 mm | - | 52 W/m² | - |
| 1778101794 | 15.56° C | 99% | 1007.4 hPa | 0 mm | - | 44 W/m² | - |
* Rain latest hour (hover to see other rain measurements)
** Current wind speed in m/s (hover to see current wind gust speed)